Elsenborn, Belgium

4:58 PM CET on December 14, 2017 (GMT +0100)
Elsenborn

Weather History for EBLB - February, 2013

Change the Weather History Date:

Saturday, February 16, 2013

  Actual Average Record
Temperature  
Mean Temperature 34 °F -  
Max Temperature 37 °F 39 °F 55 °F (2007)
Min Temperature 32 °F 31 °F 12 °F (2016)
Degree Days  
Heating Degree Days 30    
Moisture  
Dew Point 33 °F    
Average Humidity 96    
Maximum Humidity 100    
Minimum Humidity 87    
Precipitation  
Precipitation 0.00 in - - ()
Sea Level Pressure  
Sea Level Pressure 30.19 in    
Wind  
Wind Speed 3 mph ()    
Max Wind Speed 5 mph    
Max Gust Speed -    
Visibility 1.8 miles    
Events Fog    
Averages and records for this station are not official NWS values.
T = Trace of Precipitation, MM = Missing Value Source: Averaged Metar Reports

Daily Weather History Graph

Daily Weather History Graph

Search for Another Location

Airport or City:

Trip Planner

Search our weather history database for the weather conditions in past years. The results will help you decide how hot, cold, wet, or windy it might be!

Date:

Astronomy

Feb. 16, 2013 Rise Set
Actual Time 7:44 AM CET 5:54 PM CET
Civil Twilight 7:11 AM CET 6:28 PM CET
Nautical Twilight 6:33 AM CET 7:06 PM CET
Astronomical Twilight 5:55 AM CET 7:44 PM CET
Moon 10:03 AM CET (2/16) 12:21 AM CET (2/16)
Length of Visible Light 11h 17m
Length of Day
10h 09m
Waxing Crescent, 37% of the Moon is Illuminated
Feb 16
Waxing Crescent
Feb 17
First Quarter
Feb 25
Full
Mar 4
Last Quarter
Mar 11
New

Hourly Weather History & Observations

Time (CET) Temp. Windchill Dew Point Humidity Pressure Visibility Wind Dir Wind Speed Gust Speed Precip Events Conditions
12:25 AM 33.8 °F 30.8 °F 33.8 °F 100% 30.15 in 0.1 mi Variable 3.5 mph - N/A Fog Fog
1:00 AM 33 °F - 33 °F 98% 30.23 in 0 mi WSW 4.5 mph - - Fog Fog
1:25 AM 33.8 °F 29.6 °F 33.8 °F 100% 30.15 in 0.1 mi SW 4.6 mph - N/A Fog Fog
3:25 AM 33.8 °F 30.8 °F 32.0 °F 93% 30.15 in 0.1 mi Variable 3.5 mph - N/A Fog Fog
4:00 AM 33 °F - 33 °F 100% 30.22 in 0 mi 2.2 mph - - Fog Fog
4:25 AM 33.8 °F 30.8 °F 33.8 °F 100% 30.12 in 0.1 mi Variable 3.5 mph - N/A Fog Fog
5:25 AM 33.8 °F - 33.8 °F 100% 30.15 in 0.1 mi Variable 2.3 mph - N/A Fog Fog
6:25 AM 33.8 °F - 33.8 °F 100% 30.15 in 0.2 mi Variable 2.3 mph - N/A Fog Fog
7:00 AM 34 °F - 33 °F 96% 30.24 in 0 mi 2.2 mph - - Fog Fog
7:25 AM 33.8 °F - 33.8 °F 100% 30.15 in 0.2 mi Variable 2.3 mph - N/A Fog Fog
8:25 AM 33.8 °F - 33.8 °F 100% 30.15 in 0.1 mi Variable 2.3 mph - N/A Fog Fog
9:25 AM 33.8 °F 30.8 °F 33.8 °F 100% 30.18 in 0.1 mi Variable 3.5 mph - N/A Fog Fog
10:00 AM 35 °F - 33 °F 90% 30.26 in 0 mi Calm Calm - - Fog Patches of Fog
10:06 AM 33.8 °F 29.6 °F 33.8 °F 100% 30.18 in 0.5 mi WSW 4.6 mph - N/A Fog Fog
10:25 AM 33.8 °F 30.8 °F 33.8 °F 100% 30.18 in 0.8 mi Variable 3.5 mph - N/A   Overcast
10:28 AM 33.8 °F 30.8 °F 33.8 °F 100% 30.18 in 1.2 mi Variable 3.5 mph - N/A   Overcast
10:35 AM 33.8 °F 30.8 °F 33.8 °F 100% 30.18 in 0.9 mi Variable 3.5 mph - N/A   Mostly Cloudy
10:52 AM 33.8 °F 30.8 °F 33.8 °F 100% 30.18 in 1.0 mi Variable 3.5 mph - N/A   Mostly Cloudy
11:02 AM 35.6 °F 32.8 °F 33.8 °F 93% 30.18 in - Variable 3.5 mph - N/A   Mostly Cloudy
11:17 AM 35.6 °F 31.7 °F 33.8 °F 93% 30.18 in 3.7 mi WSW 4.6 mph - N/A   Mostly Cloudy
11:23 AM 35.6 °F 32.8 °F 32.0 °F 87% 30.18 in 3.1 mi Variable 3.5 mph - N/A   Mostly Cloudy
11:37 AM 35.6 °F 31.7 °F 33.8 °F 93% 30.18 in 3.7 mi WSW 4.6 mph - N/A   Mostly Cloudy
11:47 AM 35.6 °F 31.7 °F 33.8 °F 93% 30.21 in 3.1 mi WSW 4.6 mph - N/A   Mostly Cloudy
11:57 AM 35.6 °F 32.8 °F 33.8 °F 93% 30.18 in 3.7 mi Variable 3.5 mph - N/A   Mostly Cloudy
12:07 PM 35.6 °F 32.8 °F 33.8 °F 93% 30.18 in 3.1 mi Variable 3.5 mph - N/A   Mostly Cloudy
12:37 PM 35.6 °F - 33.8 °F 93% 30.18 in 5.0 mi Variable 2.3 mph - N/A   Mostly Cloudy
1:00 PM 36 °F - 33 °F 87% 30.26 in 6 mi 2.2 mph - -   Clear
1:25 PM 37.4 °F - 33.8 °F 87% 30.18 in 4.3 mi Variable 2.3 mph - N/A   Mostly Cloudy
1:37 PM 37.4 °F - 33.8 °F 87% 30.18 in 5.6 mi Variable 2.3 mph - N/A   Mostly Cloudy
2:25 PM 37.4 °F - 33.8 °F 87% 30.18 in 5.6 mi Variable 2.3 mph - N/A   Mostly Cloudy
3:25 PM 35.6 °F 32.8 °F 33.8 °F 93% 30.18 in 6.2 mi Variable 3.5 mph - N/A   Overcast
4:00 PM 36 °F - 33 °F 87% 30.25 in 6 mi 2.2 mph - -   Scattered Clouds
4:25 PM 35.6 °F - 33.8 °F 93% 30.18 in 3.7 mi Variable 2.3 mph - N/A   Mostly Cloudy
5:17 PM 37.4 °F - 33.8 °F 87% 30.18 in 6.2 mi Variable 1.2 mph - N/A   Mostly Cloudy
5:25 PM 35.6 °F - 33.8 °F 93% 30.18 in 6.2 mi Variable 1.2 mph - N/A   Mostly Cloudy
6:01 PM 35.6 °F - 33.8 °F 93% 30.18 in - Variable 1.2 mph - N/A   Overcast
6:19 PM 35.6 °F - 33.8 °F 93% 30.18 in - Calm Calm - N/A   Overcast
6:25 PM 35.6 °F - 33.8 °F 93% 30.18 in 1.4 mi Calm Calm - N/A   Overcast
6:31 PM 35.6 °F - 33.8 °F 93% 30.18 in 0.9 mi Calm Calm - N/A   Overcast
6:37 PM 35.6 °F - 33.8 °F 93% 30.18 in 1.0 mi Variable 1.2 mph - N/A   Mostly Cloudy
6:53 PM 33.8 °F - 33.8 °F 100% 30.18 in 0.8 mi Variable 1.2 mph - N/A   Overcast
7:00 PM 35 °F - 34 °F 92% 30.27 in 1 mi Calm Calm - -   Mist
7:20 PM 33.8 °F - 33.8 °F 100% 30.18 in 1.1 mi Variable 2.3 mph - N/A   Overcast
7:25 PM 33.8 °F 30.8 °F 32.0 °F 93% 30.18 in 1.5 mi Variable 3.5 mph - N/A   Overcast
7:42 PM 33.8 °F 30.8 °F 33.8 °F 100% 30.18 in - Variable 3.5 mph - N/A   Mostly Cloudy
7:57 PM 33.8 °F - 33.8 °F 100% 30.18 in 1.7 mi Variable 2.3 mph - N/A   Mostly Cloudy
8:25 PM 33.8 °F - 32.0 °F 93% 30.18 in 1.3 mi Calm Calm - N/A   Mostly Cloudy
8:37 PM 33.8 °F - 32.0 °F 93% 30.18 in 0.9 mi Calm Calm - N/A   Mostly Cloudy
8:43 PM 33.8 °F - 32.0 °F 93% 30.18 in 1.1 mi Calm Calm - N/A   Mostly Cloudy
8:53 PM 32.0 °F - 32.0 °F 100% 30.18 in 0.9 mi Calm Calm - N/A   Mostly Cloudy
9:11 PM 32.0 °F - 32.0 °F 100% 30.18 in 0.4 mi Variable 1.2 mph - N/A Fog Fog
9:25 PM 32.0 °F - 32.0 °F 100% 30.18 in 0.2 mi Variable 2.3 mph - N/A Fog Fog
9:53 PM 32.0 °F - 32.0 °F 100% 30.18 in 0.2 mi Variable 2.3 mph - N/A Fog Light Freezing Fog
10:00 PM 32 °F - 32 °F 100% 30.28 in 0 mi 2.2 mph - - Fog Fog
10:25 PM 32.0 °F - 32.0 °F 100% 30.18 in 0.2 mi Variable 2.3 mph - N/A Fog Light Freezing Fog
10:50 PM 32.0 °F - 32.0 °F 100% 30.18 in 0.1 mi Variable 2.3 mph - N/A Fog Light Freezing Fog
11:25 PM 32.0 °F - 32.0 °F 100% 30.18 in 0.1 mi Variable 1.2 mph - N/A Fog Fog